Dewpoint
-5 -5 -5 -5 -5 -5 -5 -6 -6 -8 -11 -13 -14 -16 -17 -17 -16 -14 -6 -1 -2 -0 1 3 3 9 11 12 12 13 14 16 14 16 14 12 12 13 14 15 15 14 14 15 16
-4 -4 -5 -5 -5 -6 -6 -6 -6 -7 -9 -11 -14 -16 -17 -18 -17 -15 -12 -7 -0 -2 -0 2 3 4 5 4 6 13 15 13 13 13 13 12 11 10 14 15 16 16 16 15 16
-4 -3 -4 -4 -5 -5 -7 -6 -6 -7 -7 -9 -12 -15 -17 -18 -16 -14 -6 -12 -2 -1 -2 -4 -2 1 -0 1 5 11 10 10 11 11 11 12 11 11 14 15 15 17 17 16 16
-7 -3 -3 -4 -5 -5 -6 -7 -7 -7 -8 -8 -10 -13 -16 -17 -11 -5 -5 -12 -4 -1 -2 -6 -5 -1 -0 1 3 11 10 8 10 10 12 12 11 11 13 11 13 14 14 16 16
-10 -4 -2 -3 -5 -5 -5 -6 -7 -8 -8 -8 -9 -11 -14 -17 -16 -7 -8 -10 -12 -4 -4 -6 -1 0 0 -1 -0 11 9 10 8 12 12 11 11 11 12 14 15 15 15 15 15
-11 -6 -2 -3 -5 -5 -5 -6 -7 -8 -8 -9 -9 -10 -12 -15 -18 -12 -8 -8 -11 -7 -4 -6 -2 -0 -2 -2 0 -2 3 5 10 12 12 11 12 11 13 15 16 16 16 15 15
-11 -6 -3 -3 -6 -6 -6 -6 -7 -8 -8 -9 -8 -9 -11 -19 -14 -11 -9 -8 -7 -7 -9 -10 -7 -3 -3 -2 -2 -2 1 7 11 12 12 11 11 12 12 15 16 16 16 15 15
-11 -6 -3 -5 -6 -6 -6 -7 -7 -8 -8 -9 -8 -8 -13 -18 -16 -6 -8 -6 -5 -5 -6 -7 -7 -6 -4 -3 -1 2 2 4 7 12 12 10 13 9 12 15 16 17 17 16 15
-11 -4 -3 -6 -6 -6 -7 -8 -8 -8 -8 -8 -8 -7 -11 -11 -16 -6 -7 -9 -8 -8 -9 -9 -8 -5 -3 0 2 2 4 4 3 12 12 12 12 8 12 14 15 15 17 17 16
-9 -3 -4 -6 -6 -8 -8 -8 0 2 -2 -2 -4 -5 -11 -6 -6 -10 -9 -9 -8 -10 -10 -7 -3 -2 -1 -0 2 3 3 3 3 9 12 13 13 10 11 13 14 14 14 15 16
-5 -3 -6 -6 -8 -7 2 1 1 1 1 1 -4 -7 -9 -6 -3 -7 -10 -10 -8 -10 -9 -9 -3 1 0 0 1 1 2 3 0 0 1 1 1 3 11 12 14 15 14 14 14
-3 -4 -7 -7 -9 0 1 2 3 2 3 -1 -1 -1 -2 -1 -1 -5 -7 -9 -10 -9 -10 -9 -6 -5 -2 -0 0 0 -0 -1 -2 -3 -2 -0 5 6 11 11 12 13 14 14 14
-2 -5 -7 -8 -6 1 2 2 2 2 2 -1 -1 -1 -5 -3 -3 -6 -10 -9 -11 -10 -10 -8 -8 -9 -7 -7 -7 -6 -4 -4 -3 -3 -7 1 1 6 9 11 10 11 13 14 14
-2 -6 -8 -7 -2 2 2 1 1 1 -1 -3 -2 -2 -3 -2 -3 -5 -9 -11 -10 -10 -9 -10 -10 -9 -9 -8 -8 -7 -7 -6 -5 -9 -7 -0 -1 3 4 7 11 11 12 12 12
-3 -6 -8 -6 -0 3 2 2 1 2 -4 -5 -4 -4 -2 -5 -7 -9 -7 -10 -9 -9 -10 -12 -10 -9 -9 -9 -9 -10 -11 -11 -11 -10 -1 -3 5 4 5 6 5 6 11 11 12
-3 -7 -5 -4 -3 3 3 -1 1 -8 -0 -3 -3 -3 -2 -5 -6 -8 -10 -9 -10 -10 -11 -9 -11 -12 -11 -12 -11 -12 -12 -11 -7 -5 -6 -8 2 1 2 6 5 5 6 10 11
-5 -5 -3 -3 -3 2 1 -0 -7 -2 -4 -2 -4 -4 -6 -6 -7 -7 -6 -8 -8 -8 -8 -10 -10 -11 -12 -10 -12 -12 -10 -7 -8 -7 -7 -6 1 -1 -2 0 4 5 6 8 10
-4 -2 -2 -3 -1 1 1 -2 -3 -0 2 -2 -5 -6 -5 -7 -7 -7 -8 -6 -10 -10 -8 -8 -7 -10 -12 -10 -11 -12 -11 -7 -7 -6 -7 -7 -3 -6 -4 3 4 4 5 6 9
0 2 -1 -3 2 1 2 -1 -7 1 0 0 -5 -6 -5 -6 -4 -6 -6 -7 -9 -10 -8 -7 -8 -11 -12 -13 -12 -10 -10 -12 -8 -9 -7 -7 -7 -2 0 3 4 4 5 9 8
2 5 3 -3 3 2 -1 -2 2 1 -0 -3 -2 -6 -3 -5 -5 -6 -5 -8 -7 -11 -11 -9 -7 -11 -12 -12 -12 -12 -12 -10 -9 -8 -7 -7 -6 -1 -6 -9 0 3 4 7 9
6 5 4 -1 1 2 -5 -1 1 -0 -0 1 -2 -3 -5 -4 -5 -6 -4 -4 -1 -4 -11 -11 -9 -9 -11 -10 -10 -11 -11 -11 -10 -9 -7 -6 -5 -7 -5 -7 -3 -1 -0 2 7
5 6 3 2 2 3 3 2 1 1 0 1 -2 -4 -3 -4 -2 -6 -3 -3 -1 3 -3 -11 -9 -7 -8 -11 -11 -11 -10 -11 -8 -9 -8 -8 -6 -10 -7 -6 -5 -3 -0 2 2
5 5 4 3 4 4 3 3 2 1 0 -1 -2 -3 -3 -1 1 -4 -3 -2 5 5 6 -4 -6 -5 -6 -9 -8 -9 -12 -12 -11 -10 -7 -7 -5 -11 -6 1 -0 2 2 3 3
6 7 6 5 3 3 3 1 1 -0 -0 -2 -0 -1 -0 0 -1 0 1 -0 2 6 4 -1 0 -5 -4 -7 -4 -0 1 -8 -6 -5 -7 -8 -8 -8 0 7 7 5 -0 3 3
3 3 1 2 1 0 0 0 1 1 -1 -2 -1 -1 2 3 1 -0 1 3 3 5 5 3 5 5 3 0 4 2 3 3 -2 -4 -2 -2 -7 -8 0 7 7 6 1 3 3
1 1 0 -0 1 0 -0 -0 1 -0 -0 -0 -1 -0 -2 1 -1 -1 -1 4 4 5 5 5 6 6 6 4 5 5 4 4 2 -5 -7 -5 -4 -8 4 5 7 5 5 4 3
-3 -1 1 -1 1 1 -0 -1 -1 -1 -2 -1 -1 -1 -1 -1 -2 -1 -3 -3 3 5 5 6 6 6 7 5 5 4 4 4 4 3 -1 3 2 5 6 6 6 6 6 7 4
Wind_Speed
8 7 6 5 5 4 5 5 5 4 3 3 5 5 5 6 8 8 7 4 9 6 6 6 8 7 7 4 5 3 2 3 4 3 5 4 2 5 2 14 7 9 5 15 27
8 7 7 6 5 4 4 4 4 4 4 4 5 5 5 6 8 10 3 8 9 10 6 5 6 8 4 3 5 3 2 3 4 6 4 2 3 5 2 8 4 10 9 25 30
8 8 7 6 6 5 4 4 4 4 4 4 5 5 4 5 5 2 5 13 12 10 7 4 3 5 3 3 6 3 2 6 2 16 7 6 3 4 6 4 9 22 27 35 33
8 8 8 8 7 6 5 3 3 4 4 4 5 5 4 3 5 3 2 14 16 11 8 5 5 3 2 3 6 3 12 10 8 13 8 9 3 4 12 3 9 17 28 39 34
8 8 8 8 8 7 6 5 4 4 4 4 4 4 4 4 4 3 3 11 18 13 9 7 7 4 3 4 6 6 5 13 18 12 6 7 3 2 5 4 14 26 31 36 34
8 8 8 8 8 7 7 6 5 5 4 4 4 4 4 3 7 5 3 7 13 13 10 10 4 4 4 4 1 6 4 16 14 18 11 7 2 1 6 13 21 30 35 34 34
7 8 8 8 8 8 7 7 6 6 5 5 4 5 8 9 6 10 7 7 7 8 8 6 5 3 8 8 6 11 8 7 6 4 1 4 7 7 16 19 26 32 35 36 34
8 7 8 9 8 7 7 7 7 6 5 5 4 6 6 3 11 14 11 7 6 5 5 5 6 7 4 5 7 4 5 6 4 5 2 4 10 4 22 28 24 26 33 35 37
8 8 8 8 8 7 7 6 6 5 5 5 5 5 4 2 10 15 13 8 5 5 4 5 4 4 2 2 4 6 0 2 8 7 3 3 10 6 25 32 27 27 30 33 34
7 8 8 9 8 7 6 3 2 4 5 5 7 4 3 3 1 11 16 12 8 2 4 6 5 3 3 5 3 5 5 4 3 2 5 5 17 14 19 24 30 33 30 31 36
6 7 8 8 8 6 3 2 2 2 5 6 2 5 8 3 2 8 11 14 11 3 2 1 4 4 5 4 3 2 2 5 8 8 5 10 13 20 17 20 18 26 33 37 37
7 7 7 7 6 6 6 6 6 6 8 10 14 19 20 15 5 4 9 9 5 4 0 5 2 7 2 4 3 2 3 7 8 4 2 9 10 10 8 12 27 30 33 37 36
7 7 6 6 2 6 8 8 6 7 2 7 4 6 6 7 4 4 11 10 4 5 3 5 4 5 2 2 1 2 4 3 7 9 4 4 8 6 3 11 10 19 22 29 37
7 7 6 4 3 7 4 5 6 6 5 5 3 1 9 5 3 7 10 11 2 10 7 5 3 4 4 3 6 5 5 4 5 3 4 3 5 7 5 9 8 18 26 28 28
7 7 5 2 1 5 1 4 5 3 4 3 1 3 8 5 0 3 13 6 7 5 6 8 3 3 5 6 7 8 1 3 3 2 3 3 4 7 5 7 11 11 25 31 31
8 7 5 3 4 5 1 4 2 5 2 3 4 3 4 2 1 2 4 5 4 5 2 6 1 4 7 4 6 1 3 5 5 3 2 5 4 6 4 7 7 9 18 21 28
8 6 4 3 3 4 3 1 5 4 3 6 2 2 2 1 3 3 1 1 4 3 3 5 6 4 4 2 2 6 6 4 4 4 6 3 2 9 8 8 10 9 13 4 17
6 4 1 2 5 1 3 5 5 2 4 4 4 2 3 2 0 2 5 2 3 5 3 3 7 5 4 9 7 5 8 5 4 3 5 4 4 6 4 16 14 10 14 9 11
3 4 5 2 6 2 1 4 4 3 3 6 3 5 5 4 1 1 1 2 6 9 8 4 6 5 4 2 8 3 3 4 7 4 3 3 8 11 4 6 7 11 9 9 13
4 6 8 5 4 2 4 3 3 4 5 3 3 1 3 5 3 5 1 3 4 10 1 7 4 3 6 1 4 4 6 3 3 5 4 4 5 6 10 7 6 8 13 12 13
4 4 5 6 4 3 3 4 5 11 5 3 1 1 2 1 1 2 2 4 1 3 4 5 4 6 2 4 7 1 1 6 4 4 5 3 6 8 10 8 7 10 17 23 20
3 3 4 7 4 2 1 3 5 5 2 5 1 4 4 5 1 1 2 5 9 2 2 3 5 5 12 3 2 2 6 6 5 3 2 3 6 2 7 9 12 24 28 15 25
4 4 7 1 2 3 5 4 4 4 4 3 3 2 2 2 1 2 3 7 9 6 2 4 2 3 9 5 3 2 2 5 5 3 5 5 6 2 10 11 16 19 25 18 16
3 2 2 3 1 3 2 4 6 7 3 5 3 4 2 2 3 1 3 3 11 3 6 5 3 5 5 6 3 3 1 4 4 3 5 5 6 10 10 11 18 25 23 24 21
4 1 2 1 1 2 1 2 3 6 5 10 4 6 3 2 1 1 2 5 6 7 3 3 3 4 5 5 3 2 4 4 6 5 6 5 7 8 8 9 17 26 20 18 21
3 2 1 0 3 1 1 3 1 4 1 3 3 6 3 1 2 3 1 3 6 3 3 3 2 1 4 3 3 5 7 7 5 4 5 4 7 6 15 17 14 28 23 15 14
6 4 2 2 2 1 3 1 2 5 5 4 2 2 3 3 12 19 17 13 8 3 3 1 5 3 5 2 7 6 6 8 4 2 5 5 7 3 8 16 18 30 30 24 15
Wind_Direction
346 349 352 352 349 356 356 359 3 359 337 308 287 278 280 271 271 260 243 205 190 159 171 169 168 162 189 235 227 178 70 237 217 232 253 184 139 239 61 134 133 189 165 169 165
343 345 345 345 347 345 344 356 353 348 338 317 301 292 290 280 270 258 219 191 189 192 183 159 174 186 212 217 181 159 131 234 230 212 249 18 186 222 81 142 75 160 151 164 165
339 339 338 339 340 339 340 343 341 337 335 323 313 300 293 289 287 148 181 199 186 177 172 158 182 199 245 208 187 161 208 244 215 288 214 189 241 209 155 206 178 160 155 166 168
335 336 331 332 333 333 335 327 322 324 324 325 317 308 292 265 165 159 178 193 187 188 185 181 192 208 241 228 187 161 232 264 264 261 188 159 185 175 202 273 215 180 170 169 172
332 331 331 329 329 330 330 324 311 309 313 313 315 312 294 247 231 161 88 172 189 194 195 192 194 223 269 286 301 181 232 228 246 237 218 157 152 192 225 165 165 165 171 175 176
328 327 328 329 328 324 321 319 310 303 302 304 311 305 283 253 204 210 157 162 186 192 200 204 230 223 278 272 284 285 219 255 234 212 210 188 154 110 149 159 164 171 180 183 184
328 327 329 328 326 322 317 311 305 295 295 297 305 294 267 235 200 190 176 163 184 187 202 223 240 265 324 328 327 310 349 24 6 254 278 112 316 234 172 168 167 174 183 191 195
328 328 329 328 328 325 316 308 302 293 288 282 285 288 256 225 209 189 187 189 192 205 219 250 254 271 239 293 331 27 29 16 342 130 18 158 261 255 179 177 178 185 189 199 204
329 331 332 333 331 330 316 310 300 289 279 282 274 272 266 199 207 201 204 210 205 246 242 258 242 200 158 112 12 9 103 332 333 213 95 175 273 29 184 183 191 192 195 200 211
328 330 333 334 338 338 326 318 315 290 267 271 261 288 240 96 83 214 213 215 229 241 179 188 191 104 55 70 259 312 336 298 178 351 242 236 257 259 189 199 197 201 200 201 214
327 333 335 336 344 6 32 124 315 288 276 242 212 274 282 308 330 190 195 210 218 273 145 38 101 187 227 155 161 261 267 287 293 226 251 247 262 270 187 202 210 202 204 207 216
335 337 338 343 3 79 85 85 49 318 306 284 261 255 257 279 286 174 191 178 160 189 127 13 208 219 108 142 178 233 296 296 285 269 255 291 278 276 172 215 212 206 205 212 214
332 337 341 346 62 125 95 59 23 343 296 299 266 253 242 200 218 210 181 167 133 151 164 158 229 120 161 139 83 257 221 265 268 327 292 326 314 315 280 250 264 231 226 222 215
328 335 347 359 137 149 121 27 359 336 54 287 349 75 170 146 259 218 184 170 109 178 159 222 254 195 175 209 141 274 201 233 267 10 299 42 279 307 321 300 234 237 225 220 214
322 329 335 302 202 172 37 343 327 321 62 320 56 129 157 179 103 335 193 177 150 160 118 243 182 159 193 202 169 231 189 258 287 219 2 327 91 268 348 305 280 254 226 223 223
316 324 320 298 217 195 258 343 282 40 44 8 149 149 118 315 12 85 126 172 144 119 340 232 247 179 212 176 184 284 48 37 50 80 30 257 131 285 246 220 283 273 270 221 220
319 323 304 251 182 205 265 296 41 94 305 318 347 62 106 113 37 35 44 330 151 88 276 335 253 242 174 178 4 80 59 342 353 11 222 14 85 238 259 249 241 277 317 275 220
332 340 336 202 177 113 138 50 79 255 302 328 14 40 84 20 161 320 128 184 154 95 101 175 320 179 196 177 174 179 152 153 225 199 262 342 254 262 230 289 286 285 304 297 216
31 52 65 119 161 92 84 70 197 219 291 331 326 65 5 1 96 76 175 243 213 166 174 162 275 290 236 150 132 175 159 185 104 16 60 259 294 306 344 334 343 332 300 284 238
102 85 62 84 138 92 73 228 250 228 319 10 60 117 47 333 41 28 18 228 288 196 295 204 295 235 286 76 47 168 159 77 11 169 219 290 285 236 301 308 301 276 260 247 237
110 88 55 106 105 35 123 233 272 265 247 222 226 59 100 4 307 338 291 289 4 10 160 141 139 257 81 210 192 37 213 48 119 125 164 200 266 220 247 259 268 283 269 260 222
91 60 125 130 34 41 118 216 311 295 352 269 174 185 179 186 186 277 243 218 351 305 126 206 161 234 220 228 167 142 175 151 130 216 124 158 269 268 300 316 311 297 293 261 241
88 91 162 95 87 346 309 293 272 304 325 354 245 208 154 202 300 197 282 318 5 20 32 179 349 2 343 7 14 145 163 91 98 78 186 140 263 58 1 326 337 299 295 270 228
103 72 122 216 118 138 12 298 319 327 277 352 326 65 100 64 25 296 333 298 332 33 39 108 110 158 199 228 185 138 110 125 129 109 174 225 279 315 331 327 329 318 301 295 272
57 84 120 233 321 332 175 275 313 351 354 16 28 29 344 53 59 295 249 326 337 359 73 91 175 184 224 242 303 268 216 202 189 186 161 235 205 265 282 298 303 317 311 304 271
71 66 28 127 306 307 94 210 276 328 267 343 62 320 313 128 222 272 253 194 240 318 42 17 311 76 285 247 229 254 247 245 238 188 249 247 266 216 305 313 306 325 330 313 295
52 26 351 357 11 93 230 204 305 350 269 231 8 305 260 211 312 284 264 267 245 216 219 159 143 115 264 316 313 308 217 200 200 184 172 188 235 351 317 320 325 316 322 315 294
Height
1503 1503 1503 1502 1502 1501 1500 1499 1499 1498 1498 1497 1497 1497 1497 1497 1498 1498 1498 1501 1501 1501 1502 1504 1505 1507 1508 1508 1508 1510 1515 1516 1510 1509 1499 1494 1496 1496 1497 1499 1504 1505 1505 1508 1511
1502 1502 1502 1501 1501 1501 1500 1499 1498 1498 1498 1497 1496 1496 1496 1496 1496 1496 1500 1499 1501 1502 1502 1503 1505 1506 1508 1508 1508 1509 1519 1511 1501 1497 1497 1497 1498 1498 1500 1501 1504 1506 1506 1508 1513
1502 1501 1500 1500 1500 1500 1499 1499 1498 1498 1497 1496 1496 1495 1495 1495 1495 1495 1496 1497 1500 1502 1503 1504 1505 1506 1506 1506 1506 1508 1512 1496 1497 1494 1495 1497 1499 1498 1497 1500 1500 1501 1503 1507 1511
1501 1500 1499 1499 1499 1498 1498 1498 1497 1497 1496 1495 1495 1495 1495 1495 1499 1493 1494 1495 1499 1501 1504 1504 1505 1506 1505 1505 1503 1508 1502 1496 1490 1491 1493 1493 1495 1497 1497 1497 1496 1501 1501 1506 1512
1500 1499 1498 1498 1498 1497 1497 1496 1496 1495 1495 1494 1494 1494 1494 1494 1493 1492 1492 1494 1497 1500 1503 1504 1504 1505 1505 1501 1500 1502 1499 1495 1490 1492 1494 1494 1494 1496 1498 1497 1497 1501 1506 1507 1510
1499 1498 1497 1496 1496 1496 1495 1495 1494 1493 1493 1493 1493 1493 1493 1494 1491 1491 1492 1494 1497 1500 1502 1503 1503 1504 1503 1500 1501 1494 1497 1490 1489 1488 1489 1491 1493 1493 1497 1497 1499 1501 1505 1508 1510
1499 1497 1496 1495 1494 1494 1493 1493 1492 1492 1492 1492 1491 1491 1491 1489 1489 1491 1492 1494 1496 1498 1500 1502 1503 1504 1502 1497 1496 1495 1495 1490 1491 1492 1492 1493 1496 1493 1493 1497 1500 1501 1505 1508 1510
1497 1496 1495 1494 1493 1492 1491 1491 1490 1490 1490 1491 1491 1490 1487 1486 1488 1490 1492 1493 1495 1496 1498 1500 1502 1502 1502 1500 1497 1500 1500 1511 1494 1493 1495 1497 1506 1486 1490 1493 1500 1502 1502 1505 1506
1496 1495 1494 1493 1492 1490 1490 1489 1489 1488 1488 1489 1490 1490 1485 1486 1487 1489 1491 1493 1495 1496 1497 1499 1500 1501 1502 1504 1513 1510 1521 1512 1504 1494 1495 1498 1500 1489 1489 1489 1493 1498 1500 1502 1505
1495 1494 1493 1492 1490 1489 1488 1488 1487 1487 1487 1487 1487 1491 1485 1486 1486 1486 1489 1492 1494 1495 1497 1498 1498 1501 1506 1510 1533 1521 1519 1512 1514 1500 1496 1500 1494 1480 1486 1491 1485 1491 1496 1497 1498
1495 1493 1492 1491 1490 1488 1488 1487 1490 1489 1485 1483 1484 1484 1483 1484 1484 1485 1488 1490 1492 1493 1498 1497 1504 1512 1502 1503 1506 1509 1513 1515 1500 1497 1498 1496 1490 1476 1480 1484 1485 1486 1489 1490 1491
1493 1492 1491 1490 1489 1489 1488 1487 1489 1491 1485 1480 1479 1480 1480 1483 1484 1484 1487 1490 1491 1498 1496 1501 1509 1499 1498 1502 1505 1508 1512 1513 1500 1492 1495 1489 1486 1474 1475 1473 1474 1475 1481 1485 1492
1492 1491 1491 1490 1489 1490 1489 1490 1490 1489 1487 1477 1476 1476 1478 1482 1481 1482 1484 1486 1490 1497 1498 1507 1499 1495 1498 1501 1506 1509 1512 1511 1509 1496 1490 1490 1494 1481 1471 1471 1471 1475 1479 1481 1484
1491 1490 1490 1489 1491 1490 1490 1490 1490 1489 1499 1481 1476 1476 1477 1479 1481 1481 1483 1486 1489 1497 1499 1500 1493 1494 1499 1503 1504 1515 1500 1501 1503 1508 1522 1494 1528 1491 1478 1471 1468 1466 1468 1472 1476
1489 1489 1489 1488 1489 1490 1491 1490 1490 1489 1516 1477 1476 1477 1477 1480 1481 1480 1481 1483 1490 1492 1497 1500 1493 1495 1499 1499 1498 1504 1494 1498 1498 1508 1510 1506 1520 1497 1483 1476 1463 1455 1457 1462 1467
1488 1488 1488 1488 1488 1489 1490 1490 1491 1504 1507 1481 1475 1476 1479 1479 1480 1480 1481 1483 1485 1489 1492 1493 1490 1490 1490 1490 1491 1490 1495 1505 1513 1521 1536 1509 1515 1510 1489 1475 1462 1451 1450 1458 1463
1487 1487 1486 1487 1488 1489 1490 1490 1506 1512 1485 1487 1480 1478 1479 1481 1480 1480 1483 1487 1495 1506 1506 1496 1490 1485 1485 1491 1491 1496 1514 1541 1535 1542 1538 1513 1515 1499 1470 1464 1459 1453 1452 1456 1460
1486 1486 1486 1486 1488 1489 1489 1493 1506 1493 1491 1480 1481 1480 1483 1482 1482 1482 1486 1493 1489 1497 1514 1512 1512 1486 1478 1484 1494 1499 1507 1538 1540 1550 1534 1515 1517 1487 1462 1457 1454 1454 1453 1454 1456
1486 1486 1486 1487 1488 1490 1491 1510 1503 1495 1488 1487 1485 1491 1490 1484 1483 1484 1487 1492 1484 1486 1503 1514 1505 1479 1476 1474 1478 1495 1508 1499 1529 1538 1540 1526 1502 1474 1460 1456 1454 1453 1452 1453 1453
1487 1487 1488 1488 1490 1491 1494 1506 1498 1491 1486 1485 1491 1488 1494 1492 1488 1488 1488 1479 1480 1479 1476 1490 1507 1481 1476 1474 1478 1485 1488 1512 1525 1532 1530 1529 1517 1503 1470 1462 1456 1453 1450 1450 1453
1487 1488 1491 1491 1492 1493 1505 1505 1495 1485 1486 1486 1486 1489 1491 1491 1489 1491 1488 1480 1477 1478 1478 1486 1492 1487 1476 1483 1487 1493 1497 1508 1513 1523 1534 1536 1521 1475 1465 1456 1458 1454 1450 1448 1452
1488 1492 1493 1494 1496 1500 1503 1498 1491 1485 1483 1483 1484 1485 1487 1488 1489 1490 1488 1482 1476 1476 1479 1481 1494 1501 1489 1474 1473 1474 1484 1496 1516 1514 1528 1528 1512 1462 1463 1462 1459 1453 1445 1443 1445
1489 1493 1495 1496 1504 1504 1499 1496 1492 1487 1484 1482 1482 1481 1483 1486 1492 1487 1484 1478 1477 1476 1479 1479 1497 1509 1493 1485 1476 1478 1479 1489 1499 1508 1523 1521 1507 1462 1460 1457 1455 1451 1444 1444 1443
1490 1496 1497 1497 1498 1499 1501 1498 1494 1487 1486 1484 1483 1481 1483 1487 1488 1489 1487 1479 1476 1476 1476 1477 1498 1499 1510 1494 1487 1483 1480 1483 1493 1509 1514 1508 1487 1467 1464 1460 1453 1448 1443 1443 1446
1491 1497 1498 1501 1499 1499 1499 1498 1496 1494 1487 1486 1485 1487 1487 1491 1492 1491 1486 1483 1477 1477 1477 1480 1490 1491 1485 1486 1482 1478 1478 1479 1485 1485 1492 1485 1488 1471 1463 1460 1453 1448 1444 1440 1438
1494 1497 1497 1498 1497 1498 1498 1496 1495 1493 1492 1489 1491 1489 1487 1488 1489 1490 1486 1485 1484 1478 1478 1481 1491 1489 1488 1481 1483 1485 1479 1477 1478 1478 1480 1476 1477 1461 1457 1454 1452 1446 1443 1440 1438
1497 1497 1497 1499 1498 1500 1498 1495 1494 1494 1489 1488 1488 1489 1488 1485 1484 1481 1481 1480 1479 1479 1481 1484 1494 1498 1499 1486 1489 1490 1476 1474 1469 1468 1467 1477 1466 1461 1458 1453 1450 1443 1440 1437 1439